Location: Krakow
(50.0830°N, 19.9170°E)
Time: 19:16:16
(UTC+01:00)

Altair - Pass Details

Date: 03 December 2023
Orbit: 1501 x 1682 km, 47.2° (Epoch: 02 March)

Event Time Altitude Azimuth Distance (km) Brightness Sun altitude
Rises 11:01:25 0° 262° (W) 4,766 10.1 17.6°
Reaches altitude 10° 11:04:33 10° 261° (W) 3,758 9.6 17.6°
Maximum altitude 11:13:59 76° 178° (S) 1,569 8.2 17.7°
Drops below altitude 10° 11:23:09 10° 95° (E) 3,659 9.6 17.8°
Sets 11:26:09 0° 94° (E) 4,635 10.1 17.8°
